Skip Page Navigation
NASA JPL Caltech
NASA Logo - Jet Propulsion Laboratory + View the NASA Portal
+ Center for Near-Earth Object Studies
JPL Home Earth Solar System Stars & Galaxies Technology
JPL Solar System Dynamics
BODIES ORBITS EPHEMERIDES TOOLS PHYSICAL DATA DISCOVERY FAQ SITE MAP
JPL Small-Body Database Browser
Search: [ help ]  
181340 (2006 QX182)
Classification: Main-belt Asteroid          SPK-ID: 2181340
Ephemeris | Orbit Diagram | Orbital Elements | Mission Design | Physical Parameters | Discovery Circumstances | Close-Approach Data ]

[ show orbit diagram ]
Orbital Elements at Epoch 2459200.5 (2020-Dec-17.0) TDB
Reference: JPL 11 (heliocentric ecliptic J2000)
 Element Value Uncertainty (1-sigma)   Units 
e .1725938582007481 4.8537e-08  
a 2.401139985400578 1.564e-08 au
q 1.986717971240204 1.1816e-07 au
i 1.993053450551783 7.8591e-06 deg
node 327.5121082916982 0.00014727 deg
peri 105.2427086864661 0.00014898 deg
M 233.4615296753158 2.3748e-05 deg
tp 2459678.188434121617
(2022-Apr-08.68843412)
9.1665e-05 TDB
period 1359.016241009797
3.72
1.3278e-05
3.635e-08
d
yr
n .2648974965394874 2.5882e-09 deg/d
Q 2.815561999560952 1.8339e-08 au
  Orbit Determination Parameters
   # obs. used (total)      192  
   data-arc span      8538 days (23.38 yr)  
   first obs. used      1995-10-15  
   last obs. used      2019-03-01  
   planetary ephem.      DE441  
   SB-pert. ephem.      SB441-N16  
   condition code      0  
   norm. resid. RMS      .52934  
   source      ORB  
   producer      Otto Matic  
   solution date      2021-Apr-13 21:30:13  

Additional Information
 Earth MOID = 1.00212 au 
 Jupiter MOID = 2.45344 au 
 T_jup = 3.504 
[ show covariance matrix ]

Ephemeris | Orbit Diagram | Orbital Elements | Mission Design | Physical Parameters | Discovery Circumstances | Close-Approach Data ]

Physical Parameter Table
Parameter Symbol Value Units Sigma Reference Notes
absolute magnitude H 17.4   n/a MPO427107  

181340 (2006 QX182)          Discovered 2006-Aug-19 by Spacewatch at Kitt Peak
Reference: 20080321/Numbers.arcLast Updated: 2008-03-26

[ show close-approach data ]
Alternate Designations
 2006 QX182 = 2004 BJ77 
Ephemeris | Orbit Diagram | Orbital Elements | Mission Design | Physical Parameters | Discovery Circumstances | Close-Approach Data ]
ABOUT SSD CREDITS/AWARDS PRIVACY/COPYRIGHT GLOSSARY LINKS
FirstGov 2021-May-09 15:10 UT
(server date/time)  
NASA Home Page
Site Manager:   Ryan S. Park
Webmaster  Alan B. Chamberlin